This demonstration page uses our WeatherBlox Daily Observations layout. Learn more.

Left ArrowRight Arrow

30.00354, -91.81873

Hourly Observations for July 17, 2022

Temp ( °F °C ) Dew Point ( °F °C ) Humidity (%) Winds ( mph kmh ) Pressure ( in mb ) Visibility ( mi km ) Precip ( " mm )
12:53 am 00:53 undefined N/A N/A N/A undefined N/A 29.98 1015 N/A 0.00 0.00
1:53 am 01:53 undefined N/A N/A N/A undefined N/A 29.97 1015 N/A 0.00 0.00
2:53 am 02:53 undefined N/A N/A N/A undefined N/A 29.97 1015 N/A 0.00 0.00
3:53 am 03:53 undefined N/A N/A N/A undefined N/A 29.97 1015 N/A 0.00 0.00
4:53 am 04:53 Clear 79 26.1 77 25 94 94 Calm 29.96 1015 10 16 0.00 0.00
5:53 am 05:53 Clear 79 26.1 77 25 94 94 Calm 29.97 1015 10 16 0.00 0.00
6:53 am 06:53 Sunny 79 26.1 77 25 94 94 Calm 30.00 1016 10 16 0.00 0.00
7:53 am 07:53 Sunny 79 26.1 77 25 94 94 SSE 6 9 30.01 1016 10 16 0.00 0.00
8:53 am 08:53 Sunny 80 26.7 77 25 90 90 SSW 10 17 30.01 1016 10 16 0.00 0.00
9:53 am 09:53 Sunny 85 29.4 76 24.4 75 75 SW 5 7 29.99 1016 10 16 0.00 0.00
10:53 am 10:53 Partly Cloudy 85 29.4 77 25 77 77 VRB 3 6 30.00 1016 10 16 0.00 0.00
11:53 am 11:53 undefined N/A N/A N/A undefined N/A 30.00 1016 N/A 0.00 0.00
1:53 pm 13:53 undefined N/A N/A N/A undefined N/A 29.97 1015 N/A 0.00 0.00
2:45 pm 14:45 Partly Cloudy with Nearby Thunderstorms N/A N/A N/A undefined N/A N/A N/A 0.00 0.00
2:53 pm 14:53 Partly Cloudy with Nearby Thunderstorms N/A N/A N/A undefined N/A 29.97 1015 N/A 0.00 0.00
3:06 pm 15:06 undefined N/A N/A N/A undefined N/A N/A N/A 0.00 0.00
3:14 pm 15:14 Partly Cloudy with Thunderstorms N/A N/A N/A undefined N/A N/A N/A 0.00 0.00
3:29 pm 15:29 Partly Cloudy with Nearby Thunderstorms N/A N/A N/A undefined N/A N/A N/A 0.00 0.00
3:46 pm 15:46 Partly Cloudy with Thunderstorms N/A N/A N/A undefined N/A N/A N/A 0.00 0.00
3:53 pm 15:53 Partly Cloudy with Thunderstorms N/A N/A N/A undefined N/A 29.98 1015 N/A 0.00 0.00
4:01 pm 16:01 Partly Cloudy with Nearby Thunderstorms N/A N/A N/A undefined N/A N/A N/A 0.00 0.00
4:32 pm 16:32 undefined 82 28 N/A N/A NW 7 11 29.96 1014 N/A 0.00 0.00
4:53 pm 16:53 undefined 84 29 N/A N/A undefined N/A 29.96 1015 N/A 0.00 0.00
5:53 pm 17:53 undefined 84 29 N/A N/A undefined N/A 29.93 1014 N/A 0.00 0.00
6:53 pm 18:53 undefined 84 29 N/A N/A SE 5 7 29.94 1014 N/A 0.00 0.00
7:53 pm 19:53 undefined 82 28 N/A N/A SE 7 11 29.95 1014 N/A 0.00 0.00
8:53 pm 20:53 Clear 81 27 N/A N/A ESE 5 7 29.94 1014 N/A 0.00 0.00
9:53 pm 21:53 Mostly Cloudy 81 27 N/A N/A SSE 5 7 29.96 1014 N/A 0.00 0.00
10:25 pm 22:25 Partly Cloudy 81 27 N/A N/A SSE 3 6 29.96 1014 N/A 0.00 0.00
10:53 pm 22:53 Clear 79 26 N/A N/A Calm 29.96 1014 N/A 0.00 0.00
11:53 pm 23:53 Mostly Clear 79 26 N/A N/A Calm 29.96 1015 N/A 0.00 0.00

Powered by AerisWeather